Theta_e
328 325 325 326 328 328 326 325 305 312 308 299 298 300 299 309 309 307 307 308 305 310 311 313 312 313 310 308 310 313 315 311 313 307 308 328 337 341 342 344 344 345 345 345 346 347 346 347 348 347 347 347 346 345 344 345 344 344 344 343 343 343 344 345 345 345 346 345 346 347 346 346 346 345 346 346 346 345 346 346 347 347 347 346 346 346 346 346 345 346 345 344 343 343 344 344 344
324 324 325 327 326 327 318 326 309 304 304 299 301 304 303 306 307 305 304 307 308 310 311 312 312 312 314 313 312 313 311 322 321 323 328 333 335 340 341 343 345 344 345 345 346 346 345 346 348 348 347 347 346 345 344 345 345 345 346 345 344 344 344 345 345 346 346 346 346 347 346 346 345 346 346 346 346 345 345 345 346 346 346 345 346 345 346 346 345 345 344 343 342 341 342 342 342
323 324 325 328 327 323 321 320 302 301 298 295 299 303 308 304 304 307 308 308 311 313 313 313 313 313 313 313 310 310 305 329 328 327 326 334 333 336 338 344 344 345 345 346 345 345 345 346 347 348 347 347 346 345 344 345 345 346 346 345 345 345 344 345 345 346 346 347 346 347 346 346 345 346 346 346 346 345 345 345 345 345 345 344 344 345 345 344 343 342 342 341 340 339 340 341 342
326 325 322 324 317 328 315 312 305 302 298 298 298 304 305 306 306 309 310 311 310 311 312 312 309 315 313 309 311 317 314 321 329 330 328 329 333 338 338 343 345 345 346 345 345 345 345 346 347 347 348 347 346 346 345 345 346 347 345 346 346 346 346 346 347 347 346 346 346 346 346 346 346 346 346 345 345 344 345 344 344 345 345 345 344 344 344 343 342 341 340 339 339 339 340 341 341
323 322 324 321 319 312 313 309 306 305 298 301 298 305 306 308 309 310 309 311 311 310 312 311 310 317 319 315 315 311 316 324 330 335 332 338 342 339 340 343 344 344 345 345 345 344 345 346 345 346 348 347 347 346 345 345 346 347 347 346 346 346 346 345 346 346 346 346 346 347 346 347 346 346 344 344 343 342 341 341 343 344 344 344 343 343 343 342 341 340 339 338 338 339 339 340 340
317 319 325 326 314 321 314 304 303 302 306 308 304 305 308 309 308 308 309 310 312 311 312 311 310 311 311 317 317 311 325 316 328 334 337 335 339 340 343 342 342 343 345 345 344 344 345 345 345 346 347 347 347 346 345 345 346 347 347 346 345 345 345 345 345 346 346 346 346 347 347 346 346 345 344 343 342 341 340 339 340 343 343 343 342 341 341 340 339 339 338 338 339 338 339 340 340
315 321 320 322 319 318 302 301 301 303 307 311 308 309 310 312 310 310 309 310 311 313 314 313 315 313 308 314 318 325 328 329 332 335 339 338 340 341 342 340 341 342 344 344 344 344 346 344 345 346 346 347 347 347 346 345 346 347 346 346 345 345 345 346 346 346 345 347 346 346 345 346 345 345 344 343 342 341 339 338 338 339 341 342 341 340 339 339 339 339 339 339 339 338 338 340 340
320 315 319 311 308 308 301 300 300 304 306 311 312 312 312 313 313 310 310 308 307 308 311 313 314 312 309 317 311 326 332 338 338 340 339 339 340 341 341 340 340 340 342 344 344 345 346 344 345 345 346 346 346 346 345 345 346 347 347 346 346 345 345 346 345 345 346 346 344 346 345 345 346 344 344 344 342 340 339 338 337 336 338 342 342 340 339 339 339 338 340 340 339 338 338 340 340
316 316 321 313 305 308 302 301 302 307 306 310 311 314 318 315 314 314 310 312 311 310 310 312 312 307 310 314 314 326 329 337 339 340 339 339 340 341 341 340 339 339 340 342 344 345 344 343 344 344 345 346 347 347 345 345 346 348 347 346 346 345 346 345 345 345 345 345 344 345 344 345 345 344 345 342 341 340 338 337 336 336 336 342 341 340 339 339 338 340 340 339 338 337 337 339 339
312 314 307 306 307 299 300 300 300 304 306 310 311 312 314 315 313 314 312 311 311 311 312 315 314 309 311 308 313 326 327 335 337 337 339 340 341 341 340 341 341 340 339 342 345 344 344 344 343 343 344 344 346 346 346 345 346 346 346 346 346 345 346 345 345 344 344 345 344 344 344 344 344 344 344 342 340 340 339 338 336 335 335 339 342 340 339 338 338 340 339 338 337 337 337 338 338
306 312 313 303 299 296 295 297 301 304 306 309 310 314 315 316 315 314 314 313 314 311 313 314 312 310 311 310 312 332 333 334 335 335 338 340 340 340 340 341 341 341 340 344 345 344 344 344 344 342 343 343 345 345 345 345 346 346 346 346 346 345 344 345 344 345 344 344 344 343 343 344 344 344 344 342 341 341 339 338 336 336 335 338 341 340 339 339 338 338 339 338 337 336 336 337 337
303 305 306 296 297 298 298 297 299 302 305 307 307 311 315 315 315 313 314 311 312 312 311 314 310 314 309 310 318 329 331 333 336 338 339 340 339 340 341 341 341 341 345 345 344 343 344 344 344 345 341 341 341 342 342 343 345 346 346 346 345 345 345 344 344 344 343 343 342 344 345 344 343 343 341 338 337 338 339 338 338 337 336 335 338 340 340 339 339 339 338 337 336 337 336 335 335
302 307 302 297 294 296 298 297 298 301 302 304 306 310 313 314 313 314 314 314 313 312 312 315 316 314 307 309 324 329 330 334 337 338 339 338 339 339 341 341 341 342 345 344 344 343 343 344 344 344 342 339 339 339 339 340 343 344 344 345 345 345 344 343 344 344 343 343 345 345 344 344 343 342 340 337 336 337 338 337 339 338 338 335 335 337 340 340 339 339 338 337 336 336 336 334 333
301 303 302 297 301 297 294 294 296 295 297 303 307 310 311 312 314 316 316 313 313 312 317 319 317 316 312 312 320 325 331 336 337 338 338 338 339 339 341 340 340 340 344 344 343 343 343 343 344 343 342 342 341 338 337 337 339 342 341 342 343 343 343 343 342 342 342 342 343 342 342 343 342 339 338 336 335 336 334 334 336 337 338 337 336 335 336 340 340 339 337 336 335 335 335 335 333
305 308 299 296 295 298 299 294 294 294 294 300 305 308 309 312 315 316 316 313 313 317 319 320 319 314 310 309 315 327 332 335 336 338 338 338 340 339 339 338 339 340 340 343 343 343 343 343 343 343 342 343 342 340 338 337 336 338 338 339 340 341 340 339 338 338 338 338 338 339 339 340 339 337 336 335 334 334 334 333 333 336 336 336 334 335 335 336 339 338 336 336 336 335 334 335 335
306 304 303 295 292 294 298 299 299 296 295 300 304 307 309 314 316 314 316 316 313 316 317 313 319 314 315 317 324 332 334 335 336 337 336 336 336 337 337 336 336 338 337 339 343 342 343 343 342 343 343 343 342 340 339 338 335 335 336 336 337 338 337 336 335 334 334 334 334 335 335 336 336 335 336 332 332 332 334 329 331 334 338 336 335 335 336 335 335 337 336 337 336 334 333 333 335
308 306 296 296 292 295 298 297 297 293 299 302 312 312 308 311 315 315 316 316 312 312 314 316 315 318 315 326 332 334 335 335 334 335 334 332 331 331 333 332 334 337 338 337 339 342 342 342 342 342 342 342 342 341 339 339 337 334 334 334 334 334 334 333 332 330 329 329 330 330 332 332 332 332 333 330 331 329 325 326 329 332 336 338 337 337 338 337 335 334 335 336 336 334 334 335 335
305 296 294 293 296 295 299 297 297 304 304 305 308 309 309 307 311 313 315 312 312 313 312 313 316 316 324 328 333 335 334 333 334 332 330 329 329 329 330 331 332 334 334 335 337 341 341 341 341 342 341 341 341 341 340 340 338 335 336 334 334 332 331 331 331 331 334 331 328 329 330 331 330 330 330 334 328 328 324 325 327 330 333 335 337 338 338 337 335 334 333 333 332 334 333 329 330
297 294 293 290 294 298 301 300 304 301 300 304 306 308 307 308 310 312 308 308 309 309 310 312 311 315 326 331 332 332 332 331 332 331 330 328 328 330 330 331 331 334 334 334 336 340 341 340 342 341 341 341 341 340 341 339 338 337 336 335 335 332 334 332 332 333 331 332 331 330 329 328 328 329 329 331 330 325 326 325 327 329 331 333 334 335 335 336 336 334 333 334 334 333 326 323 325
295 292 289 291 297 297 299 302 303 302 303 301 303 305 305 306 307 312 309 307 308 306 307 310 310 310 322 328 329 331 331 331 331 330 329 329 329 330 330 331 331 333 334 335 334 338 340 340 341 342 341 341 341 340 340 339 337 337 336 335 334 333 333 332 331 331 331 332 333 330 327 326 327 327 333 335 337 327 325 324 325 326 328 329 331 332 333 333 334 334 333 333 332 328 324 323 323
299 292 289 292 297 295 298 303 301 301 301 301 302 303 304 302 304 309 310 307 306 306 311 312 312 313 319 327 328 329 329 329 329 330 329 329 329 330 331 332 332 333 335 336 335 335 338 340 342 342 342 341 341 339 339 338 337 336 335 335 334 332 332 331 330 330 330 330 330 329 328 327 328 327 327 330 328 327 324 324 324 325 326 326 327 328 328 329 329 326 326 327 324 326 323 324 324
295 291 294 295 296 294 298 299 301 298 299 299 299 299 300 302 304 306 307 305 305 307 314 315 316 316 323 325 327 328 328 328 328 328 328 328 329 328 330 332 334 335 335 334 334 334 337 339 341 341 342 341 341 340 339 338 336 335 335 335 334 333 332 329 329 330 329 331 329 328 328 328 327 326 327 326 325 326 325 324 324 324 323 325 325 327 327 328 326 325 325 326 324 324 325 325 324
289 293 294 295 295 293 296 297 297 296 296 296 296 298 298 298 299 303 305 306 310 315 314 317 317 317 321 326 327 325 328 327 327 328 328 328 328 329 330 330 331 331 333 333 334 334 335 338 340 341 341 341 341 340 340 338 337 336 335 335 334 332 332 329 328 329 328 329 329 327 327 326 325 324 326 325 324 324 325 325 324 324 324 324 324 324 325 328 326 325 323 325 324 323 322 324 324
291 287 292 292 294 293 295 295 297 297 296 296 298 299 295 296 294 302 301 306 310 312 313 314 317 318 318 323 327 325 327 328 327 329 330 329 330 330 331 330 331 331 333 333 334 334 334 336 338 339 340 340 340 340 339 339 338 337 335 334 334 332 332 330 329 330 329 328 329 328 327 327 325 323 324 326 325 324 323 324 324 323 323 323 324 324 324 325 327 325 323 322 323 323 322 322 321
288 288 291 293 295 296 297 297 297 298 298 299 298 296 296 297 296 297 297 301 305 308 311 312 314 316 317 317 324 325 326 328 328 329 330 329 331 331 332 333 330 331 331 332 333 334 335 335 337 338 338 341 340 340 339 338 339 338 336 335 334 331 333 332 331 331 328 329 329 328 327 326 325 324 324 323 324 323 324 324 323 322 323 323 323 322 323 322 323 325 323 322 322 322 321 321 320
291 292 292 292 293 295 296 296 296 296 297 298 296 295 296 297 299 295 297 299 303 306 307 309 311 312 314 315 316 318 324 325 328 328 329 330 331 331 331 330 330 330 332 333 333 333 335 336 335 337 338 339 340 340 338 338 338 337 336 336 335 332 333 333 332 330 327 328 328 328 327 326 326 324 324 324 322 323 323 324 324 323 322 322 322 322 321 322 322 322 322 322 322 321 320 321 320
294 292 293 292 293 293 294 293 293 294 294 296 294 293 295 298 296 290 299 303 304 305 306 308 310 311 312 314 315 316 317 321 327 328 329 329 330 330 329 330 329 329 332 333 334 334 334 335 336 336 338 337 338 337 337 338 337 336 336 336 336 334 333 332 332 331 327 326 326 328 327 326 326 326 325 324 323 323 324 324 323 324 322 322 323 323 324 323 322 322 322 321 321 322 321 320 321
293 293 293 292 292 293 293 293 293 294 293 296 295 294 296 296 295 291 295 299 300 299 302 307 309 310 310 311 314 315 316 319 320 329 328 327 327 328 328 328 328 329 330 332 333 335 335 334 336 337 337 338 337 337 336 336 337 336 336 336 335 335 334 332 331 330 326 325 327 328 327 327 325 326 326 325 324 323 323 322 323 323 323 323 324 323 323 323 322 322 322 322 321 321 321 321 321
292 291 285 287 288 287 290 289 291 293 292 296 296 293 292 294 291 295 296 297 297 297 298 300 302 307 311 313 314 314 314 316 320 324 328 328 328 329 328 329 329 329 330 332 333 334 334 334 335 336 337 338 337 337 337 337 337 337 337 336 336 336 334 333 331 330 327 326 327 329 327 328 326 326 325 325 324 323 322 322 323 322 323 323 324 323 322 322 322 322 322 322 323 322 321 321 322
293 291 287 285 285 285 289 291 292 291 293 297 296 282 287 291 295 297 298 297 296 294 295 299 302 305 309 311 312 314 317 317 318 323 325 328 329 328 328 329 329 330 330 331 333 333 335 338 337 338 336 338 337 337 337 337 336 336 337 336 335 335 334 332 331 331 327 326 327 328 328 327 327 326 326 326 325 324 324 323 323 322 323 323 324 324 323 323 322 322 321 321 321 321 320 320 320
287 290 289 283 281 281 290 290 291 290 295 296 296 284 287 292 295 298 297 298 295 293 293 296 301 304 305 308 309 311 315 316 317 321 329 331 329 329 329 330 330 330 330 332 333 333 334 336 338 337 336 336 336 337 337 336 336 336 336 336 336 335 335 333 332 332 329 327 326 327 328 327 327 327 327 326 326 325 324 324 324 322 324 323 323 323 323 323 322 321 321 320 320 319 319 320 320
288 283 280 284 281 283 287 291 290 288 293 296 294 285 286 291 294 297 298 297 295 293 293 294 297 300 302 304 306 308 311 315 316 320 327 329 329 329 329 329 329 330 329 331 332 333 334 334 335 335 335 335 336 336 337 337 334 335 335 335 336 336 334 334 333 332 331 328 327 326 328 327 327 327 327 327 325 325 323 323 323 324 324 324 324 322 322 320 320 321 320 320 318 318 318 318 319
288 284 281 281 283 283 284 289 291 292 292 295 293 286 290 290 295 297 299 298 297 293 293 293 294 295 296 298 301 304 305 305 315 317 323 327 328 329 330 329 329 330 330 331 332 332 332 334 334 334 334 335 336 336 335 335 337 336 336 335 336 336 335 334 333 333 331 329 327 325 327 327 327 327 327 327 325 325 325 325 323 325 325 323 322 322 322 322 320 321 320 320 319 317 318 318 318
282 284 281 283 281 282 280 287 289 293 292 289 293 289 290 292 295 297 298 298 297 293 293 295 298 299 299 297 298 300 302 303 303 319 322 326 327 329 330 329 329 330 330 331 332 333 332 332 334 334 335 336 335 336 335 335 335 334 335 335 334 335 335 334 333 332 331 329 328 325 326 328 328 328 328 327 326 327 326 325 325 325 325 324 323 323 322 322 322 322 320 320 320 319 317 317 318
279 280 279 280 282 282 281 281 286 289 289 288 289 289 289 292 294 295 297 298 296 295 294 295 295 296 298 299 298 300 300 300 303 322 323 326 327 327 327 329 329 330 330 331 331 333 333 332 333 332 333 334 336 336 334 333 333 335 334 332 332 334 334 333 333 332 333 331 328 327 326 327 327 328 328 328 327 326 325 326 326 325 326 324 324 323 322 322 322 322 320 320 320 320 318 318 318
282 282 281 281 279 280 281 285 288 287 285 284 286 285 288 290 292 294 296 298 296 296 296 296 296 296 297 298 296 297 301 301 313 324 325 327 327 327 328 330 330 330 331 332 332 332 332 332 332 332 332 334 336 335 334 334 332 330 331 332 330 330 332 332 333 333 334 332 330 327 326 326 327 327 328 328 328 327 326 325 326 326 325 324 323 322 321 322 323 322 322 322 321 319 318 318 317
285 284 282 281 281 282 285 286 288 292 288 284 283 285 288 290 292 294 295 297 296 296 295 296 296 298 298 300 301 301 302 303 322 326 326 327 327 327 327 328 330 332 330 332 331 332 333 332 331 330 331 332 331 331 331 331 330 330 331 331 330 332 331 332 332 332 332 332 331 328 326 326 326 327 327 328 328 327 329 328 327 327 328 327 326 324 323 324 325 325 323 323 322 321 321 321 319
283 282 281 281 282 280 285 285 289 291 287 285 286 286 287 289 291 293 295 295 295 295 295 295 296 298 298 300 301 301 303 306 308 310 319 326 326 326 325 326 326 327 329 330 330 329 331 333 331 331 331 331 331 331 331 331 331 332 331 330 331 331 331 330 330 331 332 332 331 329 326 327 327 327 326 328 328 329 328 327 326 326 327 327 327 327 326 323 325 325 325 323 323 321 321 322 322
283 282 282 281 281 284 287 287 289 290 289 285 287 286 288 290 292 293 293 294 296 298 297 297 297 298 298 299 299 299 300 300 301 303 306 312 318 321 322 323 325 326 327 328 331 331 331 332 333 332 331 331 330 330 330 330 330 331 332 332 331 331 332 332 331 331 332 331 331 330 328 327 327 327 327 327 328 328 328 327 327 327 327 327 326 326 326 326 325 325 325 323 321 322 322 324 322
283 283 281 279 283 281 279 287 289 289 287 284 287 286 288 290 292 293 294 295 296 297 296 296 298 296 296 297 297 297 297 297 298 299 301 303 303 304 308 309 310 317 319 322 326 328 329 328 331 330 331 331 331 331 329 330 330 331 332 332 331 330 329 328 331 331 330 329 329 329 327 327 327 327 327 327 327 328 328 327 327 326 326 327 326 325 326 326 326 325 325 324 324 320 320 321 323
285 285 283 282 282 283 283 283 286 288 288 289 286 285 285 287 288 287 290 293 293 293 293 294 295 296 297 296 296 297 296 296 296 297 298 299 299 299 300 302 305 306 307 309 313 316 322 324 326 328 329 331 331 330 330 330 329 330 330 329 328 327 327 328 328 327 328 327 326 326 326 327 328 327 327 327 326 327 327 327 327 326 326 326 326 326 326 326 326 326 326 324 324 322 320 321 323
282 284 283 283 284 283 284 285 284 282 281 286 285 278 277 283 285 284 287 288 289 291 291 292 293 294 294 294 294 295 296 297 296 296 296 297 298 298 299 299 300 301 303 307 308 310 311 312 313 319 328 329 330 331 330 329 329 329 327 326 324 324 324 324 324 325 327 328 327 328 328 329 329 329 329 329 328 326 327 327 326 326 325 326 326 327 327 327 327 326 326 325 324 325 323 321 321
280 281 286 287 286 285 285 284 283 278 276 284 289 278 274 281 281 284 285 286 286 288 289 290 292 293 293 293 294 294 294 295 296 296 296 296 296 296 296 297 298 298 300 304 304 305 306 307 308 310 311 313 314 317 329 329 329 328 327 326 326 325 324 325 327 327 327 329 330 329 329 329 330 330 329 330 329 328 328 327 327 327 326 326 326 327 327 327 327 327 327 326 326 325 324 322 322
280 287 289 288 286 285 284 284 283 281 285 285 287 283 275 274 279 284 286 284 284 285 287 288 290 291 293 294 294 294 295 294 294 294 294 294 295 295 295 295 295 296 297 299 301 301 301 303 304 305 307 308 309 312 314 318 326 326 324 324 323 324 325 325 328 329 330 329 329 329 330 330 330 330 330 330 330 330 328 328 328 328 327 328 327 327 327 328 328 328 327 327 327 326 325 323 322
283 288 289 287 287 286 285 284 283 283 281 279 283 286 275 274 279 284 285 282 283 283 285 287 288 290 292 292 293 294 295 295 294 293 292 292 292 293 294 294 295 295 296 296 296 298 299 300 301 300 302 303 305 307 309 311 312 316 325 326 325 325 326 327 327 326 326 326 326 327 328 329 331 332 332 331 331 331 328 328 328 328 327 328 326 327 328 328 328 327 327 327 326 326 326 325 324
287 289 290 289 288 287 286 284 283 282 279 275 279 281 273 273 278 280 283 282 281 283 285 287 288 289 290 291 292 293 294 294 294 293 293 292 292 292 293 293 294 294 295 296 296 296 297 297 297 297 298 299 301 303 305 306 308 310 311 312 317 323 325 326 325 325 325 325 325 326 327 326 326 328 330 331 331 332 331 329 329 329 328 328 326 327 328 328 328 327 327 327 327 326 327 326 325
289 289 287 287 286 284 283 283 281 281 273 274 279 282 278 270 276 278 278 280 283 284 285 286 288 289 290 291 291 292 292 292 292 292 292 292 292 292 292 292 293 293 294 294 294 294 295 296 296 295 296 297 298 298 301 302 305 306 305 307 309 311 313 319 322 324 324 324 325 326 327 327 328 328 329 328 330 331 331 330 330 330 330 328 327 328 328 328 328 328 328 328 327 326 326 326 325
287 284 283 282 282 283 282 279 277 274 271 277 279 278 279 270 274 279 283 285 285 284 283 285 286 288 289 290 291 292 292 292 292 292 292 292 292 292 292 291 292 292 292 292 292 293 293 294 295 295 295 297 297 297 297 299 302 302 303 305 305 307 310 311 313 317 321 323 323 324 324 326 327 328 328 328 329 330 330 330 329 331 330 330 329 329 329 329 329 329 328 327 327 327 327 326 326
283 282 282 275 273 275 273 276 272 272 272 277 281 282 275 273 277 280 282 283 284 285 285 285 286 288 289 290 291 291 292 291 291 291 291 291 291 291 291 291 291 291 291 291 291 291 291 292 293 292 292 294 297 297 296 297 298 299 300 302 304 305 306 308 310 311 313 314 320 323 323 324 324 324 326 325 326 329 329 330 331 331 330 330 330 331 330 330 330 330 329 328 327 326 326 326 325
281 278 278 274 270 270 269 273 275 273 275 279 278 280 274 277 279 282 281 283 284 285 286 287 287 287 288 289 290 290 290 290 290 290 290 290 290 291 291 291 290 290 290 291 291 291 291 290 291 291 292 293 294 294 295 296 297 298 299 300 302 304 304 306 307 308 310 312 313 315 321 323 323 324 325 326 327 327 325 327 329 331 331 331 331 331 331 331 330 330 329 328 327 328 327 326 326
279 281 278 276 275 271 269 272 270 272 274 277 280 276 272 274 275 283 284 285 285 286 287 287 288 289 289 289 289 289 289 289 290 289 289 289 289 290 290 290 290 290 290 290 290 290 290 289 290 290 290 291 292 292 292 293 294 296 296 298 300 302 302 303 304 305 307 308 311 313 315 319 323 325 326 326 326 327 326 327 327 327 329 331 331 330 331 331 331 330 329 329 328 328 327 326 326
280 282 281 273 272 277 271 274 272 273 274 275 276 274 277 276 282 283 284 284 285 286 286 287 286 288 288 287 287 288 288 289 289 289 288 289 289 289 289 289 290 290 290 289 289 290 289 289 289 289 290 290 290 291 291 292 293 294 294 295 297 299 300 301 302 303 305 306 307 309 310 313 314 318 322 325 325 326 326 326 326 326 326 328 329 330 331 330 330 330 329 329 328 328 328 327 326
277 278 271 274 280 278 274 274 276 276 275 273 278 276 278 282 282 282 282 282 283 284 284 284 285 286 286 286 286 287 288 288 288 288 288 288 288 288 289 289 289 290 289 289 289 289 289 289 289 288 289 290 290 291 291 291 292 293 293 293 295 297 297 298 300 301 302 303 305 305 306 307 309 311 313 316 322 326 326 326 326 327 327 326 327 327 328 329 330 329 329 329 328 328 327 327 327
278 271 276 281 286 282 275 267 270 269 266 270 277 274 276 276 273 282 281 280 280 281 282 283 284 284 285 285 286 286 286 287 287 287 288 287 286 287 287 289 289 289 289 289 289 289 289 289 289 288 288 289 289 290 291 291 291 292 292 293 294 295 295 296 298 300 301 301 301 302 304 304 305 307 309 313 316 319 323 321 324 325 326 327 327 326 326 327 327 328 329 329 329 329 327 327 327
279 276 279 274 268 267 271 270 263 263 261 265 273 275 275 276 275 279 278 279 280 281 283 283 283 285 286 286 285 286 286 286 286 286 286 286 285 285 286 286 287 287 288 289 289 289 288 288 288 288 288 289 289 290 291 291 291 291 292 292 293 294 294 294 296 298 300 299 299 300 301 303 304 305 306 307 309 314 317 322 325 325 325 326 327 327 327 327 327 326 327 328 328 328 327 326 327
280 283 277 275 274 270 267 270 269 269 262 263 265 268 269 277 276 279 279 280 281 280 280 279 280 283 285 286 287 287 286 285 285 285 285 285 285 285 285 285 285 286 286 287 287 287 287 288 288 287 288 288 289 289 290 289 290 291 291 292 292 293 293 293 294 296 296 296 298 299 300 301 302 303 304 305 306 308 312 315 320 324 325 325 325 326 327 327 325 326 326 326 327 327 327 326 326
275 275 273 274 271 274 273 272 269 265 262 263 262 260 270 277 281 280 279 279 279 280 280 280 281 281 282 284 286 287 287 287 286 285 285 285 284 284 284 285 285 285 285 286 286 286 286 287 287 287 287 287 288 289 289 289 289 290 290 291 291 292 292 293 293 294 294 294 295 297 299 300 301 301 302 302 302 303 306 310 313 317 322 324 325 325 326 326 326 324 325 325 326 326 326 326 326
276 275 272 273 271 268 265 264 272 267 266 264 262 262 268 279 284 282 280 280 280 281 281 281 281 281 281 282 283 285 286 286 286 286 286 286 285 284 284 284 284 284 285 284 285 286 285 285 286 286 286 286 287 288 289 289 289 289 289 290 291 291 291 292 292 293 293 293 294 295 297 297 297 299 300 300 300 302 304 306 308 312 316 321 324 325 325 325 323 323 324 325 325 326 325 325 325
Wind_Speed
15 12 11 11 8 6 6 2 4 2 2 6 5 5 5 6 3 5 1 4 2 4 7 1 6 2 2 4 8 7 5 6 3 1 1 0 2 7 7 4 16 15 15 12 12 13 13 16 18 20 20 20 19 19 18 17 16 15 14 13 13 13 11 12 12 12 12 13 14 13 12 11 10 11 11 13 13 13 13 13 13 14 14 14 14 14 14 14 15 14 16 14 12 13 14 13 13
11 12 12 10 6 3 2 0 2 4 3 5 6 4 6 8 1 3 4 5 4 3 4 4 1 3 2 5 4 6 4 7 7 4 4 2 3 3 4 9 16 16 14 12 12 12 12 13 18 19 20 20 19 19 19 18 17 16 15 15 14 14 13 12 12 13 14 14 13 12 12 11 12 12 13 13 13 13 13 13 14 14 15 14 15 15 15 15 14 15 15 13 12 11 12 12 13
12 10 9 7 6 4 3 3 4 3 5 6 5 8 6 9 4 2 5 6 6 6 1 4 1 2 2 4 5 4 2 9 11 7 4 5 7 4 4 13 13 15 16 12 13 12 10 12 18 18 19 20 21 19 19 18 17 16 15 15 15 15 15 14 14 14 13 13 13 12 12 12 12 13 13 13 14 14 14 14 14 13 14 14 14 15 15 14 13 12 12 12 11 11 11 12 13
11 8 6 4 3 1 0 1 3 5 7 5 5 5 6 5 6 5 8 6 5 1 1 3 3 2 1 3 3 1 2 5 6 9 4 5 3 8 5 14 13 12 12 12 12 11 10 13 17 17 18 20 20 20 19 18 17 17 16 14 15 15 15 14 14 13 13 12 12 13 13 14 13 14 14 15 15 14 14 12 13 14 14 13 13 14 15 14 14 13 11 10 10 10 10 11 12
9 6 5 4 3 2 2 2 2 3 8 5 6 9 3 5 4 2 9 2 4 3 1 4 1 2 2 3 2 2 3 7 7 7 5 2 8 10 8 13 13 13 13 12 12 11 11 17 16 16 17 19 20 20 19 18 18 17 16 15 13 13 13 13 12 13 13 12 12 13 14 13 14 14 12 14 13 14 13 13 11 11 13 13 13 13 13 12 12 12 11 10 9 9 9 10 11
8 5 4 3 2 2 2 2 4 8 8 7 8 8 5 8 5 9 5 3 4 2 5 1 1 4 2 2 1 1 0 1 3 4 7 4 9 10 9 10 12 13 13 12 11 10 11 16 16 16 16 19 20 19 19 18 18 17 15 14 14 13 12 11 9 9 11 13 13 13 15 15 14 13 12 15 14 13 12 12 10 12 12 12 12 11 11 10 10 9 9 9 9 8 9 10 10
4 4 3 3 3 2 3 6 7 7 9 9 9 12 12 6 4 2 1 1 4 2 2 1 1 2 3 2 2 4 4 2 3 2 5 8 8 9 11 8 11 14 14 12 12 11 15 16 16 16 16 18 20 19 19 18 17 15 15 14 14 14 13 11 11 9 11 12 13 14 14 15 15 14 12 16 14 13 12 10 10 9 11 11 12 11 9 9 9 9 10 9 9 8 9 10 11
4 3 2 5 3 3 6 7 9 6 7 10 10 12 14 10 2 4 3 1 3 2 2 4 2 0 7 3 1 1 6 6 10 10 10 8 8 9 9 8 11 11 14 13 11 11 17 17 15 16 15 16 18 18 18 17 16 15 14 14 14 13 13 12 12 11 11 11 12 15 15 15 14 13 11 13 14 14 13 11 9 9 9 11 11 10 10 10 9 10 10 10 9 8 8 10 11
3 4 2 3 6 3 6 9 8 8 9 9 11 13 13 13 5 1 2 2 4 4 4 2 6 1 1 1 2 5 5 7 9 10 9 9 9 9 7 8 10 10 12 13 12 13 14 17 15 15 15 15 16 17 16 15 13 14 14 14 13 14 13 12 12 13 12 14 13 15 15 15 14 14 11 11 12 13 12 10 10 10 8 11 11 11 11 9 10 11 11 11 9 8 8 9 10
3 3 3 2 2 9 7 8 9 8 9 10 10 12 13 11 10 5 6 6 6 5 3 1 6 2 5 6 1 2 4 6 8 9 8 9 9 8 7 9 8 10 9 10 14 14 12 17 17 14 14 14 14 14 15 14 13 12 14 14 14 14 13 13 12 13 13 13 14 15 15 16 15 13 12 13 12 11 11 9 8 8 9 10 10 11 11 9 11 12 11 11 10 8 7 8 9
2 4 3 4 7 8 9 7 9 6 10 8 10 12 13 13 10 6 5 7 5 4 3 5 1 4 4 4 0 1 6 6 7 9 8 8 7 7 6 9 8 7 10 14 12 12 12 13 17 14 13 14 13 13 13 14 14 12 13 14 15 15 14 15 15 13 15 13 15 16 14 14 12 9 9 11 9 9 11 10 9 9 10 11 12 11 11 10 10 9 11 11 10 9 8 8 8
2 3 4 5 7 8 7 7 9 7 9 7 8 10 8 13 10 9 6 7 4 6 6 5 1 1 2 3 2 2 6 5 6 8 8 7 5 6 6 6 8 8 14 13 11 11 12 11 11 14 13 13 13 12 12 13 14 13 12 14 15 16 16 15 15 13 13 14 12 12 13 12 12 10 9 10 10 11 9 8 8 9 10 9 10 11 11 11 10 11 10 10 10 10 9 8 9
3 3 5 5 6 6 8 9 7 7 7 7 7 6 8 11 12 11 6 6 5 4 4 6 3 3 2 3 3 6 5 5 7 7 7 5 5 4 4 7 9 11 14 12 13 12 11 10 10 10 10 13 12 12 12 12 13 13 12 14 14 15 16 17 15 14 12 10 11 12 12 11 10 11 11 10 9 8 7 5 5 7 5 10 9 10 11 11 10 10 10 10 10 10 10 9 9
4 3 3 7 4 8 7 9 6 8 7 6 7 6 5 6 8 7 4 8 7 7 2 4 4 3 1 3 4 5 6 6 7 6 5 5 4 4 4 6 7 12 12 12 13 12 11 10 9 9 9 9 8 9 11 11 12 12 11 13 12 13 14 15 12 12 11 10 11 10 11 11 12 13 12 11 10 8 6 4 6 6 6 8 9 10 10 12 12 10 9 9 9 9 9 9 8
2 3 3 4 6 5 7 8 7 8 8 4 5 4 4 6 7 6 8 7 6 4 1 3 3 3 0 2 3 3 5 7 5 4 4 5 4 4 5 5 5 8 12 12 12 12 12 11 10 9 9 8 8 7 6 8 11 11 11 12 11 11 12 12 12 11 11 10 10 9 9 10 11 12 12 12 11 9 8 7 8 6 7 10 9 9 9 11 11 11 9 9 8 8 8 8 8
3 4 2 3 7 7 6 6 5 9 6 4 6 7 5 7 4 4 2 2 2 2 3 1 3 2 3 4 5 10 10 7 6 4 5 5 4 2 4 5 5 7 7 10 11 11 11 11 9 9 9 9 8 7 7 7 8 11 11 11 11 10 11 11 11 11 11 10 10 10 10 8 9 8 11 10 11 9 9 7 8 6 7 8 8 10 10 9 11 11 10 9 9 7 7 7 9
3 2 3 3 9 7 4 5 3 5 3 4 11 4 3 0 4 2 4 3 6 4 4 2 2 4 5 5 10 11 10 8 6 7 5 3 3 4 3 3 6 4 4 5 8 9 11 11 11 9 10 11 9 8 7 7 7 10 9 10 11 10 11 11 11 11 10 9 9 10 10 7 5 5 6 5 8 6 8 9 8 7 7 6 8 8 6 7 5 7 8 11 11 7 4 8 6
2 3 3 8 6 5 4 5 4 5 5 9 9 15 3 3 2 1 0 4 4 5 7 3 2 3 8 7 10 11 10 10 8 8 6 5 3 3 3 1 4 5 4 5 5 10 11 10 11 10 10 11 10 7 7 7 6 8 7 6 6 7 7 8 7 6 7 5 9 9 6 6 6 5 5 6 5 5 6 10 8 8 6 6 6 6 7 4 8 5 8 7 8 8 7 5 5
3 2 5 10 3 5 4 4 12 10 11 11 11 12 15 5 5 2 4 3 4 6 8 6 7 4 8 10 11 11 10 9 9 8 8 7 5 6 5 3 3 6 5 4 4 10 10 10 10 10 10 10 11 8 7 7 9 6 6 6 5 6 6 5 5 6 5 6 6 6 6 6 6 6 5 6 5 8 7 10 9 8 6 6 6 6 7 6 8 8 7 5 4 8 5 3 4
4 4 7 7 4 8 11 7 10 13 11 12 14 11 13 10 11 9 6 6 5 8 6 8 8 5 9 11 10 10 9 8 7 9 9 8 6 7 7 6 4 6 6 5 4 7 10 8 11 11 11 10 11 8 7 8 9 7 6 6 5 5 5 4 4 4 5 6 6 6 6 4 5 6 8 14 9 7 7 9 11 9 9 7 7 5 5 7 7 7 8 6 4 4 3 4 5
1 6 6 5 6 7 7 4 12 10 13 12 12 11 10 15 12 8 8 9 5 3 2 8 11 11 9 10 10 9 8 8 6 6 8 7 6 7 6 7 6 6 6 6 5 6 10 10 10 10 10 10 11 8 8 8 9 7 7 7 6 6 6 6 5 4 5 5 6 6 5 4 6 5 7 8 6 7 6 5 5 5 5 4 6 4 4 3 4 4 3 4 3 4 4 5 6
6 6 9 10 11 11 13 15 9 10 9 11 13 12 9 12 10 8 9 7 3 1 9 9 12 16 10 9 8 7 8 7 7 7 7 8 8 8 7 8 8 7 6 6 6 5 8 9 11 9 9 8 11 8 8 8 10 8 8 8 7 6 6 6 5 5 6 5 6 6 6 6 6 6 6 7 7 7 6 5 6 6 5 4 4 5 5 5 5 4 4 5 5 5 6 6 6
5 6 8 9 9 12 10 13 11 10 9 9 10 11 12 9 13 9 10 8 9 12 10 8 9 11 5 6 6 7 7 7 7 8 8 7 7 5 6 7 8 7 7 7 6 5 6 9 10 9 10 8 10 8 8 8 8 8 8 8 8 8 7 7 6 6 6 5 5 6 5 6 4 6 6 6 7 6 7 6 6 6 6 6 6 5 5 6 6 6 5 6 7 7 6 7 8
8 8 8 12 12 14 11 13 10 9 9 10 9 11 13 11 13 7 12 8 10 13 11 10 7 7 12 2 5 4 6 7 7 7 6 7 8 7 5 6 7 6 7 6 7 5 6 8 8 8 9 10 8 9 8 8 8 8 9 9 9 9 9 8 8 7 6 7 6 6 6 5 4 6 6 7 6 6 6 7 8 7 7 6 7 7 7 6 7 7 7 7 8 7 8 7 6
9 8 6 9 9 10 12 11 12 11 10 9 8 10 11 11 11 12 15 11 13 14 14 9 10 7 6 10 0 4 5 5 6 6 4 3 5 6 4 4 5 6 6 6 6 5 5 6 8 10 7 9 9 8 8 8 8 7 7 8 8 8 8 8 8 8 7 7 7 7 6 6 5 6 5 6 6 7 6 5 5 7 7 7 7 7 7 7 7 8 8 7 7 7 7 4 3
4 9 12 12 12 13 13 14 13 11 7 6 11 11 11 10 13 16 15 12 10 11 14 12 10 9 4 6 10 7 0 6 6 6 6 4 4 5 5 4 3 7 6 5 5 5 5 6 7 9 9 9 8 9 9 8 8 7 6 7 7 7 7 8 8 7 6 7 8 6 6 6 5 6 6 4 6 5 5 5 4 4 6 6 6 6 7 7 7 5 5 4 4 3 3 3 3
9 12 11 13 14 14 11 12 13 12 11 9 11 13 13 9 6 12 4 8 4 6 10 12 13 11 7 4 5 7 6 4 5 7 5 4 3 5 5 5 3 5 8 7 5 3 3 7 7 7 7 6 8 8 4 8 8 7 5 6 6 6 6 7 6 6 5 7 7 8 5 6 3 3 6 5 5 5 6 6 6 5 5 6 6 7 5 5 6 6 5 5 5 5 5 5 6
9 10 10 11 11 11 12 13 13 8 8 7 10 12 9 9 9 17 7 12 18 14 11 6 9 15 13 8 4 5 6 3 4 6 7 6 6 5 5 6 5 2 5 6 6 3 3 4 5 6 7 5 5 9 9 5 7 6 7 6 5 6 6 6 6 6 5 5 6 8 6 5 4 3 4 5 5 6 6 6 5 5 6 6 6 5 5 5 5 4 5 5 5 5 6 6 6
10 10 12 12 11 11 11 12 11 8 10 9 10 12 9 6 11 13 12 17 16 17 14 14 12 8 8 4 3 3 3 4 4 3 7 6 4 3 4 4 5 4 3 5 5 5 4 4 4 5 6 4 4 5 7 7 7 6 7 7 6 5 6 5 6 6 5 4 4 7 7 6 6 4 3 4 6 5 5 5 5 5 4 4 5 5 5 4 4 4 4 4 5 5 6 6 6
10 9 9 10 8 8 10 9 10 10 9 10 6 6 2 6 14 17 17 12 11 18 16 11 9 8 6 6 3 3 2 4 4 4 3 6 5 4 4 4 4 5 5 4 5 5 4 3 3 2 3 7 6 3 3 6 7 6 6 6 5 6 5 4 5 6 5 5 5 6 6 6 6 6 3 4 5 5 5 5 5 6 5 4 4 5 6 5 5 4 5 5 5 5 5 5 5
6 9 5 5 6 7 7 4 1 5 3 4 4 8 4 6 10 9 6 14 13 12 14 11 10 10 9 7 8 5 3 4 3 2 0 2 5 5 4 3 3 3 6 6 6 6 4 3 3 4 3 4 7 8 6 4 5 8 7 6 6 6 5 5 4 4 4 4 4 5 6 6 6 5 5 3 5 5 5 5 5 5 5 4 5 5 7 6 6 6 6 6 6 6 6 6 5
5 3 4 3 3 5 6 7 2 2 3 3 6 8 6 5 11 7 9 5 13 14 10 10 12 8 6 6 7 9 4 5 5 3 1 2 3 5 5 3 4 5 4 6 6 6 5 3 3 4 4 4 5 7 7 6 3 4 3 6 6 6 6 5 5 5 4 5 4 3 6 7 6 5 5 5 4 6 6 6 6 6 6 6 6 4 3 3 5 5 5 6 6 5 6 6 6
3 5 8 8 8 8 7 3 10 3 3 5 5 7 9 8 4 8 12 10 5 4 7 12 13 14 12 9 7 7 10 9 4 5 5 4 3 3 6 5 4 4 4 6 7 4 4 5 4 3 3 4 5 5 4 6 3 4 6 5 6 6 6 6 5 5 5 5 6 5 5 6 6 6 5 5 5 5 6 6 6 7 6 6 5 4 3 3 3 3 4 4 5 5 6 5 5
7 7 7 8 10 10 7 13 14 4 6 7 6 7 7 10 13 9 11 13 9 2 4 3 2 1 4 3 5 7 8 10 9 6 7 6 6 4 3 5 5 5 4 5 7 8 4 4 5 5 3 3 3 5 7 5 7 7 4 5 5 7 7 6 6 6 6 5 5 6 4 6 6 6 6 5 6 5 6 6 4 5 6 7 6 6 5 4 4 5 5 4 5 5 5 5 6
9 9 8 9 10 10 11 7 9 15 13 11 8 8 8 6 10 14 13 9 7 8 4 4 4 3 4 6 5 5 6 8 8 7 8 8 6 4 3 4 4 5 4 5 6 7 6 4 5 5 5 4 4 2 3 4 5 2 5 5 3 5 6 5 5 4 4 5 4 4 5 6 7 7 6 5 5 6 4 5 6 5 5 6 6 6 6 6 7 6 5 4 4 5 5 4 4
11 11 8 9 7 9 8 9 10 11 10 8 9 7 9 9 9 11 12 9 5 6 5 6 5 6 6 4 5 5 3 5 3 3 4 5 4 5 4 4 4 5 5 4 3 7 7 5 4 3 4 4 5 4 3 3 6 6 6 5 5 2 3 5 5 5 5 3 4 5 6 7 7 7 7 6 5 6 5 4 5 4 5 5 6 6 6 6 6 6 5 5 5 4 4 3 3
10 9 8 9 10 10 10 10 8 10 11 7 5 8 7 7 7 8 9 8 8 7 2 5 2 1 4 3 1 3 4 6 3 5 8 7 6 4 3 4 3 3 6 6 4 3 3 7 7 7 4 4 4 5 5 5 5 5 5 5 6 7 8 7 6 5 5 6 6 5 7 7 7 7 8 7 7 7 6 5 5 5 6 6 6 7 6 5 5 6 6 6 7 6 5 4 4
9 8 8 8 8 9 8 10 11 9 7 5 3 5 7 8 8 7 6 5 7 5 6 6 6 1 9 18 17 15 13 14 21 19 17 8 4 3 2 2 1 1 1 7 6 8 6 6 8 7 6 6 5 5 5 6 6 6 6 6 5 6 6 7 7 7 7 7 8 7 6 7 8 8 8 9 8 7 7 6 6 7 7 7 7 7 7 7 7 7 7 7 7 8 6 5 7
5 5 6 7 6 8 9 3 8 6 6 6 8 8 8 9 7 5 5 3 3 13 15 17 22 20 16 17 17 18 18 18 19 19 19 18 18 18 15 14 9 6 3 1 4 6 6 5 6 6 6 6 6 4 4 5 4 5 7 5 5 4 5 6 6 6 8 8 9 10 8 8 8 8 8 8 9 8 8 8 8 6 7 7 7 8 8 9 8 9 9 8 6 7 7 5 8
3 3 4 5 6 7 5 1 4 9 5 5 4 7 7 7 7 8 3 14 14 15 17 22 20 20 19 17 17 17 18 18 19 18 17 17 19 20 19 19 20 18 15 15 13 5 4 5 5 1 3 5 6 6 6 5 4 6 6 6 8 7 5 4 4 4 6 8 9 9 8 7 8 8 8 8 8 8 9 9 8 8 8 7 8 8 9 10 9 9 9 9 8 7 8 8 6
5 6 4 5 7 7 6 8 10 11 10 10 9 4 7 12 12 14 15 14 21 18 21 22 18 16 14 15 18 17 18 18 18 20 21 21 22 20 19 18 16 16 17 19 19 18 13 13 9 5 5 4 3 4 6 3 3 2 3 2 1 1 3 4 6 8 9 8 8 8 8 8 8 9 9 9 9 9 9 8 8 8 8 7 7 9 9 10 10 10 11 10 11 9 8 7 7
7 1 2 4 5 8 10 11 11 6 6 3 7 4 5 9 13 19 16 17 19 17 20 20 19 18 18 18 16 16 16 16 18 19 18 20 20 20 22 22 20 17 18 16 15 15 17 17 20 20 11 9 8 6 2 4 7 4 3 3 3 3 5 5 7 7 6 6 8 7 8 9 9 10 10 11 11 10 10 10 9 8 8 8 8 8 9 8 10 11 11 10 11 11 8 6 8
7 2 2 6 8 8 9 10 6 4 4 6 8 4 5 5 15 15 14 17 18 18 21 18 17 17 16 16 16 16 17 17 18 19 20 21 21 21 21 19 18 19 18 15 16 18 21 20 19 17 15 14 16 18 11 4 3 2 1 3 6 7 8 7 6 6 6 6 5 6 6 7 9 11 11 12 12 12 12 12 11 10 9 8 7 7 9 10 10 10 9 10 11 9 9 10 10
5 4 8 10 11 11 10 9 6 6 4 8 3 5 8 9 11 12 12 16 18 20 19 18 16 18 16 16 17 16 17 18 16 18 20 19 19 19 18 18 18 18 17 17 18 18 20 19 18 17 14 16 17 16 16 17 9 1 0 3 4 6 5 5 6 6 3 3 4 4 5 6 7 9 9 10 11 11 12 12 13 12 12 11 9 9 10 9 8 8 10 11 10 9 11 12 11
8 11 9 12 11 9 8 6 5 5 4 4 7 5 4 8 8 9 13 15 18 18 17 18 17 17 17 18 17 17 17 18 18 16 18 18 18 17 17 18 18 19 18 18 17 16 16 17 16 18 17 17 16 18 16 15 14 14 8 3 5 4 6 6 6 6 7 6 7 8 7 6 5 4 6 8 9 11 11 12 12 12 11 11 10 10 10 10 11 10 10 11 11 10 10 11 10
7 11 12 11 9 6 6 4 5 4 3 8 6 3 8 7 8 9 10 15 15 13 13 15 15 15 15 16 16 17 16 16 16 16 15 15 15 15 16 17 20 17 15 15 15 16 17 17 19 21 19 16 16 18 16 17 18 17 16 16 15 10 6 4 3 5 5 3 7 8 8 8 8 8 7 7 6 6 6 10 11 13 13 12 10 11 11 11 11 12 11 10 10 11 9 10 11
13 14 11 11 6 4 1 2 1 1 7 9 8 5 4 5 10 10 11 14 13 11 11 11 15 15 14 13 15 15 16 15 14 14 14 13 12 15 16 19 16 17 15 17 17 17 16 16 16 19 18 15 18 19 18 19 17 16 15 15 14 13 15 12 9 5 4 5 5 8 8 7 7 7 7 7 10 9 9 8 10 12 11 10 10 12 12 12 12 12 12 13 11 11 10 11 11
8 6 10 7 7 3 1 2 0 3 5 4 13 17 9 8 5 8 11 10 11 11 12 13 14 15 13 12 14 15 15 14 14 14 14 14 15 16 16 17 17 16 17 17 16 14 14 14 15 18 18 17 18 18 17 18 16 16 15 15 15 14 12 10 11 12 10 7 5 6 5 5 5 6 6 8 7 8 9 9 9 10 10 10 11 10 10 10 10 10 11 11 12 13 12 11 11
11 9 10 10 6 2 4 2 6 7 3 2 2 3 9 11 6 7 9 9 8 9 10 10 10 11 12 12 13 11 11 13 13 13 13 14 15 16 15 15 15 17 16 17 17 14 14 14 17 17 18 16 14 13 18 17 16 16 15 14 14 12 13 14 12 12 11 12 12 9 8 7 6 5 6 6 9 9 8 10 11 10 10 10 11 10 10 10 8 9 10 12 12 12 11 12 11
12 11 9 9 7 7 6 6 1 2 1 2 10 6 7 5 5 7 7 8 6 6 7 8 8 7 10 12 10 10 9 10 11 11 12 13 14 12 12 12 14 14 16 16 15 15 14 15 17 16 16 15 14 14 14 14 15 14 14 13 13 11 12 12 12 12 12 10 9 11 12 8 7 8 7 6 6 6 5 6 6 8 9 10 10 11 11 10 10 9 9 9 11 10 9 11 12
7 5 8 4 4 3 4 4 5 4 0 2 3 0 1 2 1 4 5 7 8 7 7 6 7 8 7 8 8 9 10 9 9 11 12 13 13 12 11 12 12 13 14 14 13 14 14 15 15 17 17 17 16 16 14 14 12 13 13 13 12 12 12 11 10 10 11 12 11 11 10 12 10 9 7 7 9 8 6 8 8 7 7 9 10 11 10 10 10 10 10 10 10 9 10 10 11
4 5 2 3 3 0 2 3 2 2 3 1 6 3 3 2 1 1 2 3 6 8 7 6 7 8 7 7 10 9 10 10 9 10 11 12 11 11 12 12 12 12 12 12 14 13 14 13 13 14 14 14 14 15 14 14 13 11 12 12 11 11 11 11 10 11 11 11 12 11 11 12 11 13 11 10 8 8 8 5 8 11 10 10 8 9 10 9 9 10 9 10 11 8 10 12 11
10 5 6 7 6 3 3 3 5 2 2 4 4 4 2 1 3 1 2 1 4 6 7 6 7 7 7 7 8 10 9 9 9 9 9 10 10 12 11 12 12 12 12 12 12 12 13 13 14 15 14 13 15 14 13 13 13 13 14 14 12 12 13 13 12 13 13 12 10 10 10 10 12 12 12 12 13 8 6 6 7 8 7 6 10 9 7 8 9 10 10 10 11 9 10 11 10
4 3 6 10 1 2 0 1 3 4 3 0 3 5 4 3 1 2 0 1 2 1 3 4 5 5 7 8 6 8 9 8 7 7 6 8 8 10 10 10 11 11 12 12 12 11 10 10 12 14 14 16 15 14 14 13 14 13 13 13 13 12 11 10 10 10 10 10 12 11 10 11 12 11 11 12 13 13 10 10 9 10 10 7 8 9 9 10 10 10 10 10 10 10 10 9 10
5 3 5 5 2 4 6 0 4 4 2 3 0 3 2 5 2 3 4 2 3 3 1 3 5 6 6 5 6 5 5 6 6 6 6 7 8 8 9 9 9 9 10 10 10 10 10 10 10 11 14 13 13 12 12 11 12 10 10 12 12 11 11 11 10 9 8 9 11 11 11 11 11 12 13 13 13 12 13 12 9 9 9 9 8 8 8 9 9 9 10 10 9 9 9 10 9
3 3 5 3 1 0 2 0 2 0 2 4 1 1 1 1 4 5 6 5 3 2 2 1 3 4 4 4 3 4 3 3 4 5 6 5 6 7 7 9 10 10 10 9 9 9 11 10 10 11 11 11 12 14 13 13 13 12 12 12 12 11 12 11 11 10 9 10 10 10 11 11 11 10 10 12 12 13 14 13 12 11 9 7 6 9 10 9 8 10 10 10 9 10 10 11 10
9 9 8 5 2 2 4 2 2 1 1 1 2 3 1 1 4 5 5 4 2 2 2 2 3 4 3 3 3 2 2 2 2 3 4 5 5 6 5 8 7 7 7 8 8 9 9 9 10 11 13 12 12 12 12 12 12 13 14 14 13 13 14 12 13 12 10 10 10 9 9 9 10 10 10 11 12 13 14 14 14 12 11 9 8 7 7 7 8 8 9 10 11 10 11 11 10
2 3 4 5 6 8 6 1 1 3 1 1 1 6 2 1 1 6 4 3 3 3 2 2 2 3 2 2 4 3 2 2 3 3 4 5 4 4 4 5 5 7 8 9 8 7 8 9 8 10 10 10 11 11 10 11 11 11 13 13 13 12 12 12 13 12 12 12 11 11 10 10 10 10 9 11 11 11 11 13 13 14 13 12 10 9 8 7 8 10 12 10 10 12 12 12 11
Wind_Direction
314 313 310 301 292 273 288 272 266 170 215 240 248 245 278 265 245 298 273 96 233 42 68 71 47 21 322 342 321 323 322 302 10 109 152 133 257 160 180 131 115 123 134 142 144 147 150 152 151 151 150 149 148 148 146 145 145 145 148 154 156 155 154 154 155 153 153 150 152 151 152 150 134 133 128 125 124 124 126 126 122 123 126 125 124 122 120 114 112 105 96 95 94 96 101 100 101
309 312 304 290 272 281 261 208 250 284 260 247 244 253 242 264 278 200 297 285 25 96 83 70 26 11 307 306 314 341 321 54 87 88 81 132 188 163 157 130 129 131 134 142 145 151 151 153 153 153 151 150 149 148 147 146 147 146 147 152 156 157 157 161 159 159 158 155 150 150 147 136 135 136 132 125 119 119 120 120 122 125 124 122 118 120 116 117 116 105 99 97 97 104 104 107 108
305 306 303 296 260 221 292 288 256 247 248 255 251 227 212 244 181 132 237 76 102 83 93 109 207 199 261 211 270 212 244 101 86 88 92 140 138 139 180 132 133 136 137 140 151 155 152 155 153 154 153 151 150 149 148 148 149 148 150 153 155 157 160 162 162 164 159 154 152 147 142 139 140 133 131 124 120 119 118 117 117 119 117 118 121 120 120 111 107 102 101 102 104 109 113 115 117
291 272 277 305 303 339 223 347 260 265 262 268 285 273 256 227 183 160 59 86 60 166 71 67 23 108 287 288 294 130 249 72 90 127 122 169 170 146 173 135 135 133 130 143 153 154 153 156 154 155 155 153 151 150 151 152 151 150 152 157 156 158 160 162 163 162 155 157 152 150 145 142 141 134 140 132 124 117 113 112 117 122 121 120 118 112 107 105 100 98 96 105 110 113 118 120 122
280 268 245 273 320 218 134 205 253 243 248 241 254 276 297 52 45 311 82 39 72 34 6 70 271 121 320 293 351 315 82 96 63 81 124 136 107 142 163 139 139 131 135 147 152 150 149 155 155 156 156 155 152 152 153 154 154 152 155 158 159 162 161 163 163 161 159 157 158 151 143 147 142 137 136 121 116 111 101 98 103 109 116 116 114 114 113 114 110 107 106 103 110 115 123 127 126
297 266 253 258 236 356 277 223 208 229 246 277 276 267 289 71 14 35 21 50 82 77 62 282 34 7 283 258 138 39 332 26 110 93 115 129 134 144 149 149 139 133 142 149 147 153 147 155 156 157 157 156 155 155 155 155 157 156 158 159 159 162 162 159 165 158 159 160 160 155 150 148 142 140 139 122 121 115 110 104 98 112 109 111 118 120 120 120 121 116 114 112 113 123 127 130 129
314 308 211 203 267 181 239 228 232 236 230 235 256 272 280 309 32 53 255 321 90 71 70 72 30 327 248 257 127 64 46 99 93 37 93 127 131 149 139 158 126 141 143 151 154 146 147 155 156 158 159 158 158 157 157 157 158 156 158 160 163 166 165 165 162 166 161 164 164 157 150 145 148 149 150 127 126 122 118 113 112 112 122 116 115 120 124 125 127 122 116 116 117 126 131 131 129
243 256 166 196 221 173 213 235 246 227 233 236 256 275 283 274 231 121 287 257 165 178 199 121 151 168 275 256 271 334 61 54 105 101 112 123 143 135 154 153 137 144 149 149 152 136 149 153 157 158 160 159 160 159 159 158 158 155 157 159 166 169 163 170 161 166 163 157 169 153 148 145 146 151 164 140 134 128 125 125 120 119 127 129 129 130 129 131 132 128 122 115 115 125 133 135 132
248 234 286 276 237 219 229 226 237 228 250 242 244 264 282 284 264 85 306 308 318 313 241 220 124 203 24 4 58 103 56 93 100 115 123 130 137 146 160 149 145 150 148 153 136 141 149 153 157 159 158 158 161 161 160 158 153 152 155 156 162 162 160 166 165 157 171 157 164 150 150 144 151 164 145 129 130 131 128 130 132 132 139 137 138 134 129 135 134 131 127 119 116 122 135 140 137
263 212 189 234 240 238 236 236 233 229 242 234 241 247 255 260 270 244 233 255 276 300 303 314 116 229 337 303 117 140 136 118 126 116 123 134 134 157 158 147 146 149 142 113 134 142 151 153 155 157 156 157 160 162 159 156 151 148 153 152 149 153 158 152 156 162 158 156 156 152 150 154 159 159 142 134 129 130 132 130 138 142 142 143 142 136 134 139 139 139 131 120 114 118 121 134 136
270 182 298 242 222 240 235 241 235 230 235 235 244 232 244 267 260 224 239 262 253 256 283 71 116 226 226 245 112 323 116 136 131 123 131 131 143 159 152 146 147 147 115 120 131 140 146 154 154 154 154 155 158 162 159 156 151 148 151 151 149 150 158 155 157 156 154 173 163 156 154 152 150 140 134 129 138 137 132 133 143 155 153 150 145 145 137 143 143 144 136 128 122 117 118 113 116
270 218 174 237 241 233 236 246 251 252 253 245 233 232 218 238 253 251 217 241 223 225 236 133 228 60 254 285 96 186 138 138 117 125 127 128 140 160 143 136 148 122 112 125 125 135 147 149 152 154 150 152 155 156 155 155 154 155 149 153 151 153 155 152 156 162 164 172 162 153 144 141 135 129 114 117 113 117 131 143 153 166 174 167 159 138 142 143 149 149 145 139 132 124 120 120 107
267 274 204 236 241 251 261 268 257 267 255 240 254 232 224 223 225 235 221 232 239 277 236 209 210 181 254 246 103 126 141 102 105 115 123 135 139 142 144 131 150 120 121 125 126 136 145 148 152 152 151 147 150 151 152 154 159 158 148 149 153 155 154 155 160 162 167 169 163 145 139 140 135 126 124 121 117 123 130 153 167 186 188 165 174 157 144 146 150 158 154 147 145 137 127 118 113
244 246 283 247 231 255 255 258 268 255 245 255 244 266 257 229 223 220 208 232 233 245 279 317 267 55 198 19 123 105 78 87 102 109 121 126 122 131 134 136 159 123 125 128 129 142 148 154 150 151 147 148 147 147 151 155 161 161 153 145 150 151 151 154 146 142 146 144 150 144 138 139 138 139 136 136 139 125 119 144 169 179 179 152 159 171 164 154 159 159 160 154 157 156 146 133 118
277 289 261 284 273 258 238 248 244 261 263 282 293 268 265 240 233 203 206 227 248 262 58 33 316 79 276 188 49 105 108 94 104 97 106 109 126 133 135 139 158 114 128 126 132 146 152 157 156 150 152 153 149 150 150 157 159 161 155 149 149 146 145 143 140 142 139 133 130 131 133 138 142 143 144 146 146 134 129 136 154 172 174 152 162 168 176 167 170 162 159 164 163 162 166 157 139
275 316 295 252 242 245 248 256 240 260 280 288 290 303 313 24 36 117 156 249 302 2 79 238 141 281 328 53 125 125 119 112 96 99 91 104 104 112 97 136 115 115 116 128 143 150 154 158 157 154 159 158 157 153 155 156 160 158 154 153 155 153 152 150 146 147 143 139 133 131 129 129 131 136 145 150 150 140 135 136 139 144 135 154 170 177 184 181 183 182 173 170 161 175 174 157 147
309 302 264 238 252 230 242 252 283 269 310 347 359 27 338 155 58 341 11 313 264 245 185 157 274 125 236 121 128 128 119 112 123 110 110 94 94 88 51 107 111 104 119 130 141 151 156 158 156 157 167 162 163 160 157 159 162 157 153 156 159 161 157 156 153 150 149 143 132 136 131 131 132 133 145 151 153 147 136 134 133 136 137 160 176 181 172 191 141 175 175 176 164 148 137 146 157
308 234 239 247 239 239 243 266 290 10 23 345 347 336 310 302 106 208 70 244 284 302 297 304 244 204 98 127 126 121 131 133 134 139 131 124 144 108 123 153 122 131 146 146 152 153 159 161 160 161 168 169 164 168 156 159 156 162 156 155 157 159 156 153 149 151 147 144 139 145 148 147 144 150 154 148 161 147 142 132 129 132 150 164 190 175 170 147 138 157 173 189 190 130 124 139 170
222 269 227 245 238 250 281 304 38 17 1 331 341 350 347 318 343 3 247 218 211 245 252 248 247 142 114 119 126 134 138 143 147 143 149 147 144 154 156 164 162 137 160 165 199 162 163 158 161 161 168 170 166 166 158 154 158 164 163 160 158 158 153 153 160 154 153 149 151 162 169 169 158 164 160 162 167 153 154 139 132 131 154 175 168 147 145 142 155 152 167 181 159 138 148 190 186
218 261 246 249 274 289 295 32 40 34 343 344 338 344 328 12 357 352 340 281 206 234 230 225 229 197 144 145 139 142 144 146 158 150 149 153 162 161 167 168 183 158 166 181 197 168 165 162 162 166 174 171 167 166 161 152 161 166 163 165 159 163 154 166 165 163 168 156 162 170 188 182 181 167 170 167 168 159 155 147 141 137 137 151 154 151 168 159 164 178 168 172 171 158 173 209 226
130 214 248 288 291 302 301 348 35 19 13 333 329 333 310 4 330 319 327 313 254 245 38 43 2 319 170 142 140 141 144 147 159 159 151 161 170 164 169 172 181 172 176 175 198 178 168 165 164 168 173 171 168 165 164 157 164 166 165 166 163 169 157 168 169 177 179 172 169 175 190 199 184 186 166 164 148 159 152 149 143 146 141 148 158 151 160 165 160 174 166 174 179 184 197 222 231
333 292 305 306 313 306 306 324 356 20 350 333 325 321 337 337 325 326 332 315 285 128 48 18 352 354 101 131 135 145 147 155 163 166 164 170 180 170 174 167 176 180 165 180 187 196 172 170 166 166 172 174 168 165 168 160 160 171 167 167 165 173 164 164 175 181 188 183 171 187 189 209 186 192 156 162 161 158 163 166 165 160 160 158 177 177 175 166 182 185 176 184 206 205 207 219 226
299 311 306 306 311 303 317 321 336 346 335 323 316 315 324 327 309 303 293 282 290 309 358 8 11 357 347 132 142 148 149 166 170 174 173 175 181 181 184 169 169 182 165 176 181 193 179 175 169 162 168 174 170 166 164 163 171 176 170 170 167 172 166 167 184 182 186 178 169 186 196 213 188 179 152 159 175 168 163 175 179 170 175 175 182 188 196 177 188 194 194 194 201 214 216 218 227
298 285 294 293 297 292 301 300 324 342 336 311 314 319 305 316 301 319 305 306 301 315 329 337 345 360 335 1 140 156 160 174 182 181 186 181 175 185 188 186 162 168 156 173 175 193 183 179 170 171 166 169 171 173 170 168 178 179 177 168 173 170 165 170 184 189 179 175 174 183 199 209 194 177 156 171 177 177 187 183 182 184 181 189 183 193 200 189 186 200 203 194 201 209 221 219 209
286 277 288 302 315 317 324 335 332 330 321 311 308 306 302 306 296 306 283 294 306 307 315 323 322 329 321 326 13 157 169 173 177 184 181 193 181 175 203 224 156 147 149 166 165 187 184 186 179 178 165 170 168 163 175 172 181 189 174 169 175 165 167 172 179 194 173 171 176 181 191 209 200 166 175 174 169 171 188 205 182 176 181 188 178 194 196 202 193 198 201 200 195 201 208 223 215
286 320 326 314 306 317 316 312 306 301 300 311 309 293 296 297 319 286 284 283 282 295 296 303 298 295 303 314 316 325 245 180 172 172 184 183 178 179 190 231 162 148 150 158 166 185 181 194 194 180 178 166 172 166 182 180 176 192 179 172 177 163 171 174 174 187 172 162 173 179 185 209 191 165 174 176 160 169 180 194 192 181 177 184 188 206 190 187 210 200 188 187 200 207 218 231 212
316 303 310 311 305 303 301 291 292 293 284 286 275 275 277 281 307 272 327 308 284 243 250 272 286 279 274 246 275 305 307 308 180 159 160 167 182 185 190 216 200 161 160 168 166 174 181 193 197 185 177 172 158 175 205 177 173 181 180 174 173 170 171 168 176 174 176 167 165 176 180 196 204 178 170 175 167 175 187 185 188 190 183 187 187 200 194 187 199 198 190 192 190 197 209 217 209
325 311 305 291 289 282 284 281 273 275 271 255 244 256 248 249 241 255 270 295 300 303 309 281 250 276 284 274 258 239 279 292 301 151 161 174 189 189 194 189 196 167 150 160 155 165 188 205 197 182 170 182 177 167 177 173 188 183 167 173 175 174 170 165 166 167 186 175 161 167 170 176 198 217 178 175 173 178 184 185 185 189 195 188 187 186 197 194 192 199 195 191 192 191 202 212 216
303 297 287 286 289 283 270 264 264 251 263 248 258 265 255 232 239 262 249 245 248 272 276 291 300 303 307 305 278 266 230 310 291 174 162 175 176 183 195 185 167 185 143 139 148 161 198 201 215 195 176 175 193 179 168 181 177 189 166 173 173 176 175 163 164 168 187 176 158 156 170 166 184 216 208 181 179 182 179 179 185 197 203 192 182 186 193 191 189 205 222 201 196 196 202 212 210
280 267 262 281 278 280 272 247 228 239 251 248 217 270 213 236 233 234 243 250 234 240 247 249 270 274 264 288 275 238 256 284 310 299 160 153 164 172 191 190 180 163 149 134 143 171 190 179 192 232 190 180 196 231 210 174 175 171 170 165 167 166 172 167 171 172 180 174 161 155 166 170 172 197 216 199 176 178 182 180 181 191 200 201 191 184 190 190 191 197 216 213 215 209 221 225 214
249 264 258 266 283 273 275 259 283 260 247 283 276 263 276 298 299 305 261 223 237 239 238 240 231 244 267 269 286 281 218 224 244 321 37 155 164 154 170 191 175 162 141 153 164 167 180 182 167 188 191 197 186 190 217 233 196 172 166 171 160 165 168 169 173 182 174 174 155 168 162 170 172 181 210 203 188 180 184 192 187 190 191 205 205 193 183 192 198 206 202 207 210 210 211 216 219
280 310 272 266 281 296 317 317 263 243 325 289 291 275 279 273 267 249 277 264 208 230 244 233 241 240 236 270 277 288 276 206 214 206 154 169 137 145 160 189 167 186 169 153 146 158 175 185 185 195 185 190 188 193 217 207 203 283 267 171 159 160 166 174 175 189 181 174 189 181 177 167 173 185 195 211 197 188 190 192 193 185 191 192 198 198 173 193 203 216 218 197 205 219 206 219 214
325 351 342 335 330 319 342 324 351 333 344 329 294 301 326 289 290 338 334 318 287 260 225 221 228 241 247 246 251 261 281 288 239 199 181 173 164 142 155 171 189 175 163 143 147 156 171 181 168 205 207 195 187 198 193 237 213 194 208 202 160 163 168 176 183 189 187 188 184 196 175 172 171 180 201 206 212 196 195 200 194 187 184 179 174 180 193 214 231 243 248 226 196 212 209 214 216
340 347 331 329 331 332 326 336 317 356 347 312 319 309 297 307 317 320 319 308 328 278 285 312 280 292 294 252 238 242 254 272 270 191 192 167 158 185 164 173 175 169 165 159 153 157 182 172 166 185 225 222 225 190 191 214 190 211 244 204 167 168 171 175 183 185 187 191 189 188 173 173 177 181 198 206 210 211 195 194 200 189 180 178 173 177 193 200 224 234 251 254 222 213 223 213 219
320 325 322 320 325 317 299 309 304 336 330 313 312 299 293 289 309 319 309 297 304 303 313 344 330 297 245 244 245 246 237 230 257 207 186 152 152 175 154 168 169 165 166 159 155 144 153 170 155 174 199 201 208 162 181 231 298 233 189 222 216 177 177 178 190 175 180 177 198 191 188 175 183 186 192 202 204 218 214 197 193 198 175 172 169 178 191 195 200 215 226 255 251 220 213 230 231
306 308 298 298 298 298 293 297 303 302 298 295 299 291 302 316 313 295 295 312 283 272 251 217 240 258 272 279 221 214 280 306 14 63 139 117 149 164 170 156 166 163 148 141 125 146 160 165 151 157 196 195 172 163 155 196 205 236 233 176 197 241 244 192 204 193 180 199 196 209 200 185 172 183 188 197 206 208 215 208 195 187 179 170 180 191 201 193 189 195 227 250 265 261 232 233 274
298 290 287 290 290 285 289 281 307 0 328 272 263 279 268 279 278 285 296 298 307 298 310 331 286 355 323 293 53 343 344 350 351 86 125 149 162 168 155 145 168 158 144 147 137 114 158 157 159 177 195 206 187 173 179 195 197 204 227 209 188 184 195 207 209 215 200 201 207 211 199 185 177 176 187 193 207 211 209 204 195 200 188 184 191 202 196 196 188 192 211 226 249 254 243 218 248
304 305 296 285 281 284 296 327 4 348 350 315 287 278 280 272 272 285 291 288 295 316 350 341 308 25 30 30 26 21 21 26 27 20 12 15 38 74 77 91 85 201 134 146 166 162 203 189 175 170 170 206 223 208 187 188 185 189 194 208 200 188 188 199 201 204 217 218 221 225 209 189 184 182 187 193 200 206 210 209 207 203 195 197 200 196 193 192 188 193 198 215 213 236 246 197 211
299 289 293 290 287 305 309 347 351 334 344 309 317 301 285 278 278 258 241 286 325 32 35 48 49 42 38 35 34 31 29 30 28 24 27 31 21 16 12 360 358 349 349 86 147 168 189 184 173 161 173 184 214 227 195 203 203 198 183 202 224 218 191 190 201 204 205 208 209 217 215 201 187 192 184 190 198 204 207 210 218 213 207 199 199 202 195 197 196 196 196 204 207 213 232 226 199
266 284 283 296 328 337 335 333 255 304 302 283 288 267 270 293 299 293 1 29 35 49 42 48 43 47 43 40 39 37 35 30 28 25 27 28 31 29 26 24 17 13 1 345 336 336 339 12 26 72 204 197 204 215 218 215 208 201 207 194 184 200 221 224 241 237 243 226 218 216 216 196 192 192 190 185 196 203 206 210 213 216 214 202 199 201 201 203 201 201 200 203 197 210 209 224 200
337 329 302 308 336 316 306 311 311 301 280 261 245 264 4 358 14 31 37 49 48 37 43 42 42 45 46 46 44 43 39 33 31 30 27 26 28 26 26 25 25 25 20 16 11 11 10 3 330 307 311 296 278 250 229 274 267 198 197 237 2 248 206 196 206 216 215 210 207 200 206 193 188 191 192 191 193 205 209 213 214 218 217 209 200 201 204 206 203 205 203 204 204 209 211 209 212
328 34 101 320 310 312 306 309 325 318 310 243 192 140 34 353 19 28 19 32 43 40 48 44 35 33 37 41 45 41 41 37 37 36 32 31 28 28 27 25 24 23 23 17 16 15 23 23 15 11 356 351 331 286 278 221 221 200 188 203 221 234 230 210 221 222 213 209 209 211 209 201 194 193 194 197 196 197 207 213 218 219 218 215 207 207 209 206 209 210 207 208 212 214 215 199 217
316 358 293 308 295 291 291 301 327 312 322 318 23 353 87 10 36 32 18 34 33 31 40 41 41 40 34 39 39 38 37 36 36 33 29 30 30 31 28 26 24 23 21 19 19 19 26 23 19 15 13 16 12 355 322 243 234 226 243 243 231 216 217 226 222 221 222 227 222 215 216 209 203 199 197 196 199 197 201 206 211 214 214 214 209 211 218 215 211 211 205 207 214 211 213 228 221
296 309 301 309 306 302 304 308 290 287 291 279 127 114 91 34 34 34 25 37 37 32 27 33 36 40 41 40 39 35 38 41 38 34 32 31 31 30 30 30 30 29 24 25 24 23 23 22 20 15 12 18 13 4 7 7 336 318 117 290 289 290 270 253 257 251 272 294 275 254 241 233 218 210 207 202 202 201 200 204 206 209 210 211 204 208 215 218 215 212 207 210 213 210 211 222 231
275 289 307 299 294 293 298 307 314 287 315 49 101 177 65 34 21 25 29 41 39 35 25 25 30 34 38 39 39 41 38 40 39 37 35 33 30 29 29 30 28 30 31 29 29 25 25 25 23 21 21 23 11 10 11 10 16 5 358 287 246 272 285 277 292 287 253 259 267 274 283 295 294 261 229 217 209 203 197 203 204 209 213 215 210 213 214 214 213 216 211 210 212 214 213 220 222
278 294 291 271 265 248 260 291 296 319 10 27 29 110 95 51 12 23 32 42 38 37 35 29 28 32 35 37 36 39 40 37 37 39 37 35 32 32 31 30 30 29 28 30 30 28 23 23 23 24 18 18 14 12 8 16 20 19 15 4 359 337 315 307 270 282 301 249 268 262 246 246 248 258 265 262 248 235 208 202 202 206 211 214 210 214 218 218 218 219 223 222 216 218 219 220 220
265 292 293 291 189 191 131 275 343 250 55 32 27 53 96 75 23 26 28 29 27 33 39 37 34 33 34 39 40 39 38 34 34 35 35 32 31 33 28 31 28 27 25 27 26 25 24 22 21 25 18 16 19 13 7 17 21 22 18 7 359 359 356 350 335 307 296 296 248 249 251 240 236 240 230 229 235 230 229 221 210 209 211 213 212 218 218 217 217 218 216 214 216 222 225 223 224
313 318 343 330 76 92 58 296 268 60 77 69 63 56 40 100 27 27 32 36 33 30 37 37 40 35 33 36 41 40 35 35 33 32 28 25 26 27 26 26 24 22 23 25 26 24 25 21 20 23 21 21 19 13 9 16 18 19 16 10 6 0 357 357 355 350 338 306 307 300 282 276 257 256 229 232 240 226 222 218 226 222 216 215 219 220 221 219 217 213 214 215 220 220 220 221 225
347 343 359 25 1 352 43 20 38 35 43 340 281 143 62 58 48 21 21 25 26 32 33 37 35 39 40 40 41 41 37 34 34 31 28 27 26 21 20 21 20 21 21 17 19 20 21 22 21 21 21 18 17 16 15 12 16 18 12 6 4 4 5 360 360 356 353 350 341 327 317 308 285 264 259 234 249 242 225 218 212 215 214 215 219 218 219 218 218 217 215 217 217 216 216 219 224
347 3 354 16 11 22 20 13 84 116 61 72 86 45 76 118 74 11 18 11 20 26 35 37 40 41 42 43 39 39 44 40 37 32 32 31 25 21 22 21 22 20 18 16 15 17 16 16 16 18 19 17 13 16 21 17 14 11 10 8 3 3 7 5 4 355 350 346 344 341 332 311 303 296 289 271 241 240 266 278 267 233 214 211 213 216 214 214 215 218 219 219 221 222 219 219 223
350 340 27 29 55 6 347 348 352 347 351 278 346 355 125 163 51 349 8 357 12 20 28 32 35 40 43 40 42 44 43 45 37 35 32 30 25 24 24 22 22 20 17 15 14 13 14 14 12 11 11 11 11 11 12 16 14 12 10 5 4 4 4 4 5 359 351 346 344 343 342 336 327 314 303 305 300 283 247 239 268 271 253 225 211 211 215 215 213 215 218 223 225 220 219 219 224
332 328 6 58 30 87 267 272 291 323 340 23 24 47 355 56 222 277 319 9 16 17 27 23 33 37 35 31 35 33 34 36 34 32 30 27 27 24 22 21 19 18 17 16 15 12 11 10 10 12 9 6 8 7 10 10 7 3 7 7 6 8 5 1 360 2 359 355 350 349 346 342 338 336 333 316 300 299 286 256 230 251 260 267 252 229 219 214 214 217 220 222 226 219 222 219 225
319 4 18 310 253 140 277 280 237 196 168 74 140 126 83 329 246 220 241 83 26 19 22 19 22 30 31 36 31 30 26 28 30 28 27 24 23 26 22 18 15 15 14 15 14 11 9 6 7 6 4 7 7 6 7 5 1 1 2 0 2 5 7 8 359 354 354 352 353 350 349 343 341 342 335 333 325 304 285 279 270 263 245 229 264 268 259 237 222 220 221 223 225 222 219 222 221
334 24 344 306 77 135 138 312 332 4 47 93 174 140 186 196 133 227 74 85 101 62 26 26 27 14 32 30 24 22 24 20 21 26 25 28 22 20 18 17 15 14 10 8 9 9 6 8 8 3 3 3 4 2 4 2 358 359 358 357 359 359 358 359 357 350 350 350 351 352 349 352 349 338 335 333 331 326 311 287 272 262 263 244 237 242 244 244 236 237 230 227 227 222 220 221 222
26 306 342 31 346 4 313 31 8 351 13 328 159 150 168 216 113 175 128 90 91 126 93 43 35 34 31 23 28 15 16 17 12 19 18 16 17 16 18 11 10 9 8 4 2 1 2 7 6 6 3 359 359 359 358 359 1 357 353 352 352 353 353 352 348 345 347 353 352 352 350 347 344 346 344 342 334 328 324 316 293 266 261 251 244 250 240 245 248 243 240 236 229 226 226 225 223
4 320 13 319 159 174 359 332 247 139 297 22 280 359 252 176 142 163 133 112 76 73 112 75 50 49 27 18 19 20 22 19 7 13 20 11 13 16 13 9 6 4 1 0 358 358 2 2 1 1 360 355 360 360 359 357 356 352 349 348 351 350 349 349 347 343 347 352 350 346 345 348 347 339 342 340 337 332 326 320 317 304 285 270 248 249 252 243 248 248 244 239 231 224 227 228 227
350 16 10 8 14 246 162 351 59 100 238 337 317 332 35 100 127 125 118 114 104 59 81 74 63 42 38 22 9 23 29 43 19 16 19 11 14 13 8 5 2 356 357 356 359 360 357 357 360 2 357 352 358 356 353 357 350 349 347 348 347 347 347 346 345 346 347 347 346 343 341 340 335 342 343 342 339 335 328 321 317 312 305 289 272 262 257 254 251 257 253 243 240 232 227 229 227
344 13 50 354 5 2 32 292 29 18 63 286 20 264 275 124 52 116 116 118 120 101 66 92 42 59 31 20 8 349 25 34 36 24 18 11 11 6 356 3 354 357 352 358 353 359 355 360 1 357 355 352 353 350 352 348 350 344 346 343 343 343 342 343 343 344 345 345 343 343 340 341 341 334 339 337 333 329 326 324 319 317 315 310 296 279 269 255 245 244 251 246 246 237 232 229 227